| time (UTC) | temp F | wind direction | speed knots | gust knots | rain 1hr in | rain 24hr in | rain mn in | humidity % | barometer mb |
| 20260906084541 | 52 | 333 | 6.1 | 14.8 | 0.00 | 0.04 | 0.01 | 66 | 1006.9 |
| 20260906083044 | 53 | 320 | 5.2 | 14.8 | 0.00 | 0.04 | 0.01 | 67 | 1006.9 |
| 20260906081537 | 52 | 25 | 5.2 | 13.9 | 0.00 | 0.04 | 0.01 | 70 | 1006.8 |
| 20260906080033 | 51 | 328 | 3.5 | 15.6 | 0.00 | 0.04 | 0.01 | 70 | 1006.8 |
| 20260906074533 | 51 | 346 | 8.7 | 16.5 | 0.00 | 0.04 | 0.01 | 71 | 1006.6 |
| 20260906073027 | 50 | 343 | 7.8 | 15.6 | 0.00 | 0.04 | 0.01 | 72 | 1006.3 |
| 20260906071523 | 51 | 317 | 6.1 | 13.9 | 0.00 | 0.04 | 0.01 | 74 | 1006.1 |
| 20260906070021 | 51 | 332 | 5.2 | 12.2 | 0.00 | 0.04 | 0.01 | 74 | 1006.0 |
| 20260906064517 | 50 | 17 | 4.3 | 13.9 | 0.00 | 0.04 | 0.01 | 75 | 1005.9 |
| 20260906063013 | 48 | 300 | 3.5 | 13.9 | 0.00 | 0.04 | 0.01 | 80 | 1005.7 |
| 20260906061510 | 47 | 346 | 6.1 | 10.4 | 0.00 | 0.04 | 0.01 | 83 | 1005.5 |
| 20260906060008 | 47 | 329 | 2.6 | 12.2 | 0.00 | 0.04 | 0.01 | 84 | 1005.3 |
| 20260906054505 | 46 | 5 | 3.5 | 10.4 | 0.00 | 0.04 | 0.01 | 87 | 1005.0 |
| 20260906053003 | 45 | 315 | 3.5 | 10.4 | 0.00 | 0.04 | 0.01 | 91 | 1005.0 |
| 20260906051605 | 44 | 315 | 1.7 | 7.0 | 0.00 | 0.04 | 0.01 | 93 | 1004.8 |
| 20260906050128 | 43 | 336 | 1.7 | 4.3 | 0.00 | 0.04 | 0.01 | 93 | 1004.7 |
| 20260906044556 | 42 | 319 | 1.7 | 4.3 | 0.00 | 0.06 | 0.01 | 93 | 1004.5 |
| 20260906043105 | 43 | 311 | 1.7 | 4.3 | 0.00 | 0.06 | 0.01 | 92 | 1004.4 |
| 20260906041548 | 43 | 311 | 0.0 | 2.6 | 0.00 | 0.06 | 0.01 | 92 | 1004.2 |
| 20260906040048 | 43 | 311 | 0.0 | 2.6 | 0.00 | 0.06 | 0.01 | 93 | 1004.1 |
| 20260906034545 | 43 | 311 | 1.7 | 5.2 | 0.00 | 0.06 | 0.01 | 93 | 1003.9 |
| 20260906033045 | 43 | 319 | 0.9 | 3.5 | 0.00 | 0.06 | 0.01 | 93 | 1003.8 |
| 20260906031544 | 43 | 326 | 0.9 | 3.5 | 0.00 | 0.06 | 0.01 | 93 | 1003.6 |
| 20260906030038 | 43 | 326 | 0.0 | 2.6 | 0.00 | 0.06 | 0.01 | 93 | 1003.5 |
| 20260906024537 | 43 | 327 | 0.9 | 4.3 | 0.00 | 0.06 | 0.01 | 93 | 1003.4 |
| 20260906023036 | 43 | 303 | 1.7 | 3.5 | 0.00 | 0.06 | 0.01 | 93 | 1003.3 |
| 20260906021530 | 44 | 304 | 0.9 | 4.3 | 0.00 | 0.06 | 0.01 | 93 | 1003.2 |
| 20260906020029 | 45 | 304 | 0.0 | 2.6 | 0.00 | 0.06 | 0.01 | 93 | 1003.2 |
| 20260906014531 | 45 | 304 | 1.7 | 4.3 | 0.00 | 0.06 | 0.01 | 94 | 1003.2 |
| 20260906013023 | 46 | 333 | 2.6 | 5.2 | 0.00 | 0.06 | 0.01 | 94 | 1002.9 |
| 20260906011519 | 46 | 328 | 2.6 | 7.8 | 0.00 | 0.06 | 0.01 | 95 | 1002.8 |
| 20260906010017 | 46 | 307 | 2.6 | 4.3 | 0.01 | 0.06 | 0.01 | 94 | 1002.6 |
| 20260906004516 | 46 | 308 | 0.0 | 3.5 | 0.01 | 0.06 | 0.01 | 94 | 1002.3 |
| 20260906003015 | 46 | 308 | 1.7 | 3.5 | 0.01 | 0.06 | 0.01 | 94 | 1002.3 |
| 20260906001512 | 46 | 308 | 0.0 | 2.6 | 0.01 | 0.06 | 0.01 | 94 | 1002.3 |
| 20260906000012 | 45 | 308 | 0.9 | 2.6 | 0.00 | 0.05 | 0.00 | 93 | 1002.2 |
| 20260905234509 | 46 | 308 | 0.9 | 4.3 | 0.00 | 0.05 | 0.00 | 93 | 1002.2 |
| 20260905233015 | 46 | 308 | 0.0 | 2.6 | 0.00 | 0.05 | 0.00 | 93 | 1002.1 |
| 20260905231504 | 46 | 308 | 0.9 | 3.5 | 0.00 | 0.05 | 0.00 | 93 | 1002.0 |
| 20260905230001 | 47 | 308 | 0.9 | 3.5 | 0.00 | 0.05 | 0.00 | 93 | 1001.9 |
| 20260905224609 | 47 | 308 | 0.0 | 3.5 | 0.00 | 0.05 | 0.00 | 93 | 1001.9 |
| 20260905223059 | 47 | 308 | 0.9 | 3.5 | 0.00 | 0.05 | 0.00 | 93 | 1001.8 |
| 20260905221556 | 47 | 312 | 0.0 | 3.5 | 0.00 | 0.05 | 0.00 | 93 | 1001.8 |
| 20260905220053 | 47 | 318 | 1.7 | 5.2 | 0.00 | 0.05 | 0.00 | 93 | 1001.7 |
| 20260905214603 | 47 | 339 | 0.0 | 5.2 | 0.00 | 0.05 | 0.00 | 93 | 1001.4 |
| 20260905213048 | 47 | 326 | 0.9 | 3.5 | 0.00 | 0.05 | 0.00 | 93 | 1001.4 |
| 20260905211542 | 48 | 323 | 0.9 | 4.3 | 0.00 | 0.05 | 0.00 | 93 | 1001.3 |
| 20260905210044 | 48 | 329 | 1.7 | 4.3 | 0.00 | 0.05 | 0.00 | 93 | 1001.2 |
| 20260905204537 | 47 | 320 | 0.0 | 2.6 | 0.00 | 0.05 | 0.05 | 93 | 1001.1 |
| 20260905203035 | 47 | 320 | 0.0 | 2.6 | 0.00 | 0.05 | 0.05 | 93 | 1001.0 |
| 20260905201538 | 48 | 319 | 0.9 | 3.5 | 0.00 | 0.05 | 0.05 | 93 | 1000.8 |
| 20260905200041 | 48 | 319 | 1.7 | 3.5 | 0.00 | 0.05 | 0.05 | 93 | 1000.7 |
| 20260905194530 | 48 | 329 | 0.9 | 4.3 | 0.00 | 0.05 | 0.05 | 92 | 1000.6 |
| 20260905193031 | 48 | 338 | 2.6 | 7.0 | 0.00 | 0.05 | 0.05 | 92 | 1000.4 |
| 20260905191528 | 48 | 329 | 2.6 | 7.8 | 0.00 | 0.05 | 0.05 | 92 | 1000.3 |
| 20260905190026 | 48 | 316 | 0.9 | 5.2 | 0.00 | 0.05 | 0.05 | 92 | 1000.3 |
| 20260905184534 | 48 | 330 | 0.9 | 4.3 | 0.00 | 0.05 | 0.05 | 92 | 1000.1 |
| 20260905183028 | 48 | 324 | 0.9 | 3.5 | 0.00 | 0.05 | 0.05 | 91 | 1000.1 |
| 20260905181522 | 48 | 327 | 1.7 | 7.8 | 0.00 | 0.05 | 0.05 | 90 | 999.9 |
| 20260905180020 | 49 | 327 | 0.9 | 5.2 | 0.00 | 0.05 | 0.05 | 90 | 999.8 |
| 20260905174529 | 49 | 329 | 0.9 | 5.2 | 0.00 | 0.05 | 0.05 | 89 | 999.6 |
| 20260905173019 | 49 | 327 | 1.7 | 7.8 | 0.00 | 0.05 | 0.05 | 88 | 999.5 |
| 20260905171516 | 50 | 323 | 3.5 | 7.0 | 0.00 | 0.05 | 0.05 | 88 | 999.4 |
| 20260905170014 | 50 | 314 | 2.6 | 7.8 | 0.00 | 0.05 | 0.05 | 87 | 999.2 |
| 20260905164512 | 51 | 343 | 4.3 | 8.7 | 0.00 | 0.05 | 0.05 | 86 | 999.0 |
| 20260905163010 | 51 | 326 | 7.0 | 12.2 | 0.00 | 0.05 | 0.05 | 85 | 998.8 |
| 20260905161508 | 52 | 326 | 4.3 | 11.3 | 0.00 | 0.05 | 0.05 | 85 | 998.7 |
| 20260905160009 | 52 | 317 | 6.1 | 10.4 | 0.00 | 0.05 | 0.05 | 86 | 998.6 |
| 20260905154505 | 52 | 24 | 3.5 | 8.7 | 0.00 | 0.05 | 0.05 | 87 | 998.4 |
| 20260905153008 | 51 | 344 | 6.1 | 13.9 | 0.01 | 0.05 | 0.05 | 86 | 998.3 |
| 20260905151502 | 52 | 360 | 5.2 | 13.0 | 0.01 | 0.05 | 0.05 | 85 | 998.1 |
| 20260905150002 | 53 | 321 | 3.5 | 11.3 | 0.02 | 0.05 | 0.05 | 87 | 998.0 |
| 20260905144559 | 53 | 342 | 2.6 | 8.7 | 0.02 | 0.05 | 0.05 | 88 | 997.8 |
| 20260905143058 | 53 | 344 | 4.3 | 13.0 | 0.02 | 0.04 | 0.04 | 87 | 997.6 |
| 20260905141611 | 53 | 19 | 3.5 | 10.4 | 0.02 | 0.04 | 0.04 | 89 | 997.4 |
| 20260905134606 | 54 | 355 | 4.3 | 12.2 | 0.00 | 0.02 | 0.02 | 84 | 997.3 |
| 20260905133057 | 55 | 343 | 6.1 | 13.0 | 0.00 | 0.02 | 0.02 | 80 | 996.8 |
| 20260905131556 | 56 | 355 | 3.5 | 15.6 | 0.00 | 0.02 | 0.02 | 80 | 996.8 |
| 20260905130052 | 56 | 38 | 6.1 | 18.2 | 0.00 | 0.02 | 0.02 | 79 | 996.7 |
| 20260905124547 | 55 | 313 | 5.2 | 13.9 | 0.00 | 0.02 | 0.02 | 83 | 996.4 |
| 20260905123045 | 55 | 346 | 4.3 | 21.7 | 0.00 | 0.02 | 0.02 | 82 | 996.3 |
| 20260905121543 | 56 | 309 | 8.7 | 13.9 | 0.00 | 0.02 | 0.02 | 80 | 996.0 |
| 20260905120041 | 57 | 329 | 9.6 | 14.8 | 0.00 | 0.02 | 0.02 | 81 | 995.9 |
| 20260905114613 | 57 | 313 | 4.3 | 12.2 | 0.00 | 0.02 | 0.02 | 81 | 995.8 |
| 20260905113039 | 58 | 334 | 7.8 | 13.9 | 0.00 | 0.02 | 0.02 | 79 | 995.7 |
| 20260905111542 | 58 | 331 | 4.3 | 11.3 | 0.00 | 0.02 | 0.02 | 78 | 995.5 |
| 20260905110034 | 56 | 325 | 5.2 | 9.6 | 0.00 | 0.02 | 0.02 | 84 | 995.2 |
| 20260905104534 | 56 | 333 | 4.3 | 13.0 | 0.00 | 0.02 | 0.02 | 83 | 995.1 |
| 20260905103035 | 57 | 321 | 5.2 | 13.9 | 0.00 | 0.02 | 0.02 | 82 | 994.9 |
| 20260905101530 | 58 | 311 | 7.0 | 13.0 | 0.00 | 0.02 | 0.02 | 79 | 994.8 |
| 20260905100028 | 58 | 12 | 4.3 | 12.2 | 0.00 | 0.02 | 0.02 | 81 | 994.5 |
| 20260905094523 | 57 | 47 | 1.7 | 8.7 | 0.00 | 0.02 | 0.02 | 88 | 994.3 |
| 20260905093022 | 56 | 350 | 4.3 | 13.0 | 0.00 | 0.02 | 0.02 | 89 | 994.3 |
| 20260905091518 | 55 | 319 | 1.7 | 13.9 | 0.00 | 0.02 | 0.02 | 90 | 994.2 |
| 20260905090017 | 56 | 311 | 6.1 | 13.0 | 0.01 | 0.02 | 0.02 | 89 | 994.1 |